Weather Roundup
Issued by NWS Springfield, MO

Home | Current Version | Previous Version | Text Only | Print | Product List | Glossary On
Versions: 1 2 3 4 5 6 7 8 9 10 11 12 13 14 15 16 17 18 19 20 21 22 23 24 25 26 27 28 29 30 31 32 33 34 35 36 37 38 39 40 41 42 43 44 45 46 47 48 49 50
000
NZUS99 KSGF 020059
HRRSGF

HOURLY WEATHER
NATIONAL WEATHER SERVICE SPRINGFIELD MO
700 PM CST SUN MAR 01 2015

......SGF CWA......

CITY           SKY/WX    TMP DP  RH WIND       PRES   REMARKS
SPRINGFIELD    CLOUDY    30  23  75 N7        30.37R WCI  23
JOPLIN         PTCLDY    29  22  75 NE3       30.41R
WEST PLAINS    CLOUDY    33  28  81 N6        30.36R WCI  28
ROLLA          CLOUDY    28  22  78 W5        30.37R WCI  23
OSAGE BEACH    PTCLDY    28  21  74 NW6       30.41R WCI  22
BRANSON        CLOUDY    32  30  93 CALM      30.37R

......SURROUNDING SGF CWA......

CITY           SKY/WX    TMP DP  RH WIND       PRES   REMARKS
CHANUTE        PTCLDY    26  20  77 CALM      30.42R
PARSONS        CLEAR     29  21  72 N3        30.43R
COFFEYVILLE    PTCLDY    28  22  78 N5        30.43R WCI  23
EMPORIA        CLEAR     28  20  71 N5        30.40R WCI  23
SILOAM SPRINGS CLOUDY    30  25  80 CALM      30.38R
HARRISON AR    CLOUDY    32  31  96 W3        30.36R FOG
NEAR YELLVILLE CLOUDY    34  28  80 NW3       30.37S

......KANSAS AND MISSOURI......

CITY           SKY/WX    TMP DP  RH WIND       PRES   REMARKS
KANSAS CTY INT MOCLDY    29  20  69 CALM      30.41R
DOWNTOWN KC    CLEAR     32  21  64 NW3       30.42R
COLUMBIA       PTCLDY    27  19  72 NW7       30.40R WCI  19
SEDALIA        PTCLDY    25  18  74 NW3       30.42R
ST JOSEPH      MOCLDY    28  22  78 S6        30.42R WCI  22
ST LOUIS       MOCLDY    30  22  72 NW6       30.40R WCI  24
SPIRIT OF STL  MOCLDY    29  21  72 W5        30.40R WCI  24
KIRKSVILLE     CLOUDY    26  19  74 SW3       30.39R
WICHITA        PTCLDY    30  19  63 NE6       30.40R WCI  24
TOPEKA         PTCLDY    30  20  66 CALM      30.43R
OLATHE         CLEAR     30  21  69 N5        30.40R WCI  25

......TENNESSEE......

CITY           SKY/WX    TMP DP  RH WIND       PRES   REMARKS
MEMPHIS        LGT RAIN  42  40  92 N7        30.34R VSB 1
NASHVILLE      CLOUDY    49  49 100 S3        30.31R FOG

......ARKANSAS.......

CITY           SKY/WX    TMP DP  RH WIND       PRES   REMARKS
FAYETTEVILLE   CLOUDY    32  31  96 N5        30.36R WCI  27
FT SMITH       CLOUDY    37  33  85 NW6       30.38R WCI  32
LITTLE ROCK    LGT RAIN  41  38  89 N6        30.36R FOG

......OKLAHOMA.......

CITY           SKY/WX    TMP DP  RH WIND       PRES   REMARKS
TULSA          CLOUDY    33  27  78 N6        30.41R WCI  28
PONCA CITY     PTCLDY    29  22  75 N7        30.41R WCI  22
MCALESTER      CLOUDY    33  30  88 N9        30.38R WCI  25
OKLAHOMA CITY  CLOUDY    34  25  69 N9        30.37R WCI  27

......IOWA............

CITY           SKY/WX    TMP DP  RH WIND       PRES   REMARKS
DES MOINES     PTCLDY    29  14  53 N6        30.40R WCI  23
QUAD CITIES    CLEAR     22  14  71 W9        30.35R WCI  12

......ILLINOIS........

CITY           SKY/WX    TMP DP  RH WIND       PRES   REMARKS
QUINCY         MOCLDY    23  16  74 CALM      30.39R
CHICAGO        CLEAR     21  13  71 W9        30.28R WCI  11




USA.gov is the U.S. government's official web portal to all federal, state and local government web resources and services.